TimeCDT,TemperatureF,Dew PointF,Humidity,Sea Level PressureIn,VisibilityMPH,Wind Direction,Wind SpeedMPH,Gust SpeedMPH,PrecipitationIn,Events,Conditions,WindDirDegrees,DateUTC
12:53 AM,52.0,32.0,47,30.00,10.0,SSW,6.9,-,N/A,,Clear,200,2013-03-15 05:53:00
1:53 AM,46.9,32.0,56,29.99,10.0,West,8.1,-,N/A,,Clear,260,2013-03-15 06:53:00
2:53 AM,45.0,32.0,60,29.96,10.0,SSW,11.5,-,N/A,,Clear,210,2013-03-15 07:53:00
3:53 AM,45.0,30.0,56,29.93,10.0,WSW,11.5,-,N/A,,Clear,250,2013-03-15 08:53:00
4:53 AM,39.9,30.0,68,29.91,10.0,WSW,10.4,-,N/A,,Clear,250,2013-03-15 09:53:00
5:53 AM,41.0,30.9,67,29.89,10.0,West,9.2,-,N/A,,Clear,260,2013-03-15 10:53:00
6:53 AM,41.0,30.9,67,29.90,10.0,West,8.1,-,N/A,,Clear,260,2013-03-15 11:53:00
7:53 AM,37.9,30.0,73,29.90,10.0,WSW,10.4,-,N/A,,Clear,250,2013-03-15 12:53:00
8:53 AM,41.0,32.0,70,29.89,10.0,WSW,9.2,-,N/A,,Clear,240,2013-03-15 13:53:00
9:53 AM,46.9,33.1,59,29.88,10.0,West,9.2,-,N/A,,Clear,260,2013-03-15 14:53:00
10:53 AM,55.9,34.0,44,29.86,10.0,West,9.2,-,N/A,,Clear,280,2013-03-15 15:53:00
11:53 AM,61.0,34.0,36,29.84,10.0,WNW,6.9,-,N/A,,Clear,300,2013-03-15 16:53:00
12:53 PM,69.1,34.0,27,29.81,10.0,Variable,6.9,-,N/A,,Clear,0,2013-03-15 17:53:00
1:53 PM,77.0,28.9,17,29.76,10.0,WNW,16.1,21.9,N/A,,Clear,290,2013-03-15 18:53:00
2:53 PM,80.1,26.1,14,29.73,10.0,WNW,19.6,-,N/A,,Clear,290,2013-03-15 19:53:00
3:53 PM,82.0,21.0,10,29.70,10.0,WNW,16.1,25.3,N/A,,Clear,300,2013-03-15 20:53:00
4:53 PM,82.0,19.9,10,29.69,10.0,WNW,18.4,-,N/A,,Clear,290,2013-03-15 21:53:00
5:53 PM,79.0,25.0,14,29.70,10.0,WNW,12.7,-,N/A,,Clear,300,2013-03-15 22:53:00
6:53 PM,75.9,21.9,13,29.70,10.0,NNW,13.8,-,N/A,,Clear,340,2013-03-15 23:53:00
7:53 PM,62.1,26.1,25,29.75,10.0,NNW,10.4,-,N/A,,Unknown,340,2013-03-16 00:53:00
8:53 PM,57.0,26.1,30,29.77,10.0,North,11.5,-,N/A,,Unknown,360,2013-03-16 01:53:00
9:53 PM,59.0,33.1,38,29.79,10.0,NE,19.6,-,N/A,,Clear,40,2013-03-16 02:53:00
10:53 PM,54.0,36.0,51,29.81,10.0,NE,15.0,-,N/A,,Clear,50,2013-03-16 03:53:00
11:53 PM,51.1,36.0,56,29.83,10.0,NE,16.1,-,N/A,,Clear,40,2013-03-16 04:53:00